| time (UTC) | temp F | wind direction | speed MPH | gust MPH | rain 1hr in | rain 24hr in | rain mn in | humidity % | barometer mb |
| 20260507204549 | 53 | 272 | 7.0 | 24.0 | 0.00 | 0.10 | 0.00 | 61 | 1013.1 |
| 20260507203113 | 53 | 319 | 7.0 | 20.0 | 0.00 | 0.10 | 0.00 | 61 | 1013.4 |
| 20260507201550 | 54 | 286 | 6.0 | 16.0 | 0.00 | 0.10 | 0.00 | 61 | 1013.3 |
| 20260507200053 | 53 | 209 | 5.0 | 14.0 | 0.00 | 0.10 | 0.00 | 63 | 1013.1 |
| 20260507194602 | 54 | 260 | 8.0 | 14.0 | 0.00 | 0.11 | 0.00 | 63 | 1013.4 |
| 20260507193050 | 55 | 306 | 5.0 | 11.0 | 0.00 | 0.11 | 0.00 | 62 | 1013.6 |
| 20260507191549 | 54 | 273 | 4.0 | 14.0 | 0.00 | 0.11 | 0.00 | 63 | 1013.6 |
| 20260507190055 | 55 | 279 | 6.0 | 15.0 | 0.00 | 0.11 | 0.00 | 67 | 1013.7 |
| 20260507184550 | 56 | 245 | 7.0 | 14.0 | 0.00 | 0.13 | 0.00 | 63 | 1013.7 |
| 20260507183047 | 54 | 262 | 5.0 | 14.0 | 0.00 | 0.13 | 0.00 | 75 | 1013.6 |
| 20260507181549 | 53 | 228 | 5.0 | 18.0 | 0.00 | 0.13 | 0.00 | 72 | 1013.5 |
| 20260507180048 | 52 | 265 | 5.0 | 14.0 | 0.00 | 0.13 | 0.00 | 75 | 1013.7 |
| 20260507174547 | 50 | 319 | 6.0 | 15.0 | 0.00 | 0.13 | 0.00 | 77 | 1013.9 |
| 20260507173125 | 49 | 225 | 4.0 | 14.0 | 0.00 | 0.13 | 0.00 | 78 | 1014.1 |
| 20260507171554 | 50 | 279 | 6.0 | 14.0 | 0.00 | 0.13 | 0.00 | 77 | 1014.3 |
| 20260507170050 | 50 | 296 | 3.0 | 14.0 | 0.00 | 0.13 | 0.00 | 81 | 1014.4 |
| 20260507164552 | 48 | 293 | 4.0 | 15.0 | 0.00 | 0.13 | 0.00 | 81 | 1014.5 |
| 20260507163047 | 48 | 306 | 3.0 | 18.0 | 0.00 | 0.13 | 0.00 | 82 | 1014.6 |
| 20260507161552 | 50 | 221 | 3.0 | 11.0 | 0.00 | 0.13 | 0.00 | 81 | 1014.8 |
| 20260507160101 | 47 | 236 | 4.0 | 10.0 | 0.00 | 0.13 | 0.00 | 85 | 1015.0 |
| 20260507154557 | 48 | 0 | 3.0 | 14.0 | 0.00 | 0.13 | 0.00 | 86 | 1015.3 |
| 20260507153057 | 47 | 257 | 3.0 | 13.0 | 0.00 | 0.13 | 0.00 | 86 | 1015.1 |
| 20260507151552 | 45 | 246 | 5.0 | 13.0 | 0.00 | 0.13 | 0.00 | 86 | 1015.3 |
| 20260507150051 | 44 | 338 | 5.0 | 11.0 | 0.00 | 0.13 | 0.00 | 86 | 1015.1 |
| 20260507144612 | 43 | 305 | 4.0 | 12.0 | 0.00 | 0.13 | 0.00 | 91 | 1015.3 |
| 20260507143059 | 41 | 275 | 2.0 | 7.0 | 0.00 | 0.13 | 0.00 | 96 | 1015.4 |
| 20260507141557 | 40 | 335 | 2.0 | 8.0 | 0.00 | 0.13 | 0.00 | 99 | 1015.7 |
| 20260507140053 | 39 | 281 | 2.0 | 7.0 | 0.00 | 0.13 | 0.00 | 99 | 1015.9 |
| 20260507134553 | 38 | 278 | 2.0 | 9.0 | 0.00 | 0.15 | 0.00 | 100 | 1015.9 |
| 20260507133125 | 37 | 234 | 3.0 | 9.0 | 0.00 | 0.15 | 0.00 | 100 | 1016.0 |
| 20260507131548 | 38 | 252 | 4.0 | 7.0 | 0.00 | 0.15 | 0.00 | 100 | 1016.2 |
| 20260507130058 | 39 | 348 | 3.0 | 7.0 | 0.00 | 0.15 | 0.00 | 100 | 1016.0 |
| 20260507124555 | 39 | 298 | 1.0 | 4.0 | 0.00 | 0.22 | 0.00 | 100 | 1016.2 |
| 20260507123052 | 39 | 298 | 2.0 | 6.0 | 0.00 | 0.22 | 0.00 | 100 | 1016.2 |
| 20260507121552 | 40 | 0 | 0.0 | 3.0 | 0.00 | 0.22 | 0.00 | 100 | 1016.0 |
| 20260507120048 | 40 | 355 | 0.0 | 6.0 | 0.00 | 0.22 | 0.00 | 100 | 1015.9 |
| 20260507114559 | 40 | 28 | 3.0 | 11.0 | 0.00 | 0.31 | 0.00 | 100 | 1015.6 |
| 20260507113047 | 41 | 296 | 1.0 | 7.0 | 0.00 | 0.31 | 0.00 | 100 | 1015.5 |
| 20260507111549 | 41 | 232 | 3.0 | 9.0 | 0.00 | 0.31 | 0.00 | 100 | 1015.3 |
| 20260507110052 | 41 | 286 | 3.0 | 9.0 | 0.00 | 0.31 | 0.00 | 100 | 1015.1 |
| 20260507104551 | 41 | 319 | 2.0 | 6.0 | 0.00 | 0.40 | 0.00 | 100 | 1015.2 |
| 20260507103054 | 41 | 250 | 2.0 | 5.0 | 0.00 | 0.40 | 0.00 | 100 | 1015.0 |
| 20260507101551 | 41 | 242 | 2.0 | 7.0 | 0.00 | 0.40 | 0.00 | 100 | 1015.1 |
| 20260507100053 | 42 | 272 | 2.0 | 8.0 | 0.00 | 0.40 | 0.00 | 100 | 1015.3 |
| 20260507094559 | 42 | 269 | 2.0 | 6.0 | 0.00 | 0.42 | 0.00 | 100 | 1015.0 |
| 20260507093054 | 42 | 252 | 2.0 | 11.0 | 0.00 | 0.42 | 0.00 | 100 | 1015.0 |
| 20260507091552 | 42 | 219 | 3.0 | 7.0 | 0.00 | 0.42 | 0.00 | 100 | 1015.0 |
| 20260507090051 | 42 | 240 | 2.0 | 9.0 | 0.00 | 0.42 | 0.00 | 100 | 1014.6 |
| 20260507084557 | 43 | 267 | 4.0 | 9.0 | 0.00 | 0.42 | 0.00 | 100 | 1015.0 |
| 20260507083056 | 43 | 254 | 2.0 | 10.0 | 0.00 | 0.42 | 0.00 | 100 | 1014.9 |
| 20260507081557 | 43 | 246 | 0.0 | 7.0 | 0.00 | 0.42 | 0.00 | 100 | 1014.7 |
| 20260507080056 | 43 | 262 | 4.0 | 7.0 | 0.00 | 0.42 | 0.00 | 100 | 1015.1 |
| 20260507074550 | 44 | 251 | 1.0 | 9.0 | 0.00 | 0.42 | 0.00 | 100 | 1015.2 |
| 20260507073101 | 44 | 263 | 2.0 | 7.0 | 0.00 | 0.42 | 0.00 | 100 | 1015.4 |
| 20260507071553 | 44 | 262 | 1.0 | 3.0 | 0.00 | 0.42 | 0.00 | 100 | 1015.3 |
| 20260507070058 | 44 | 248 | 2.0 | 10.0 | 0.00 | 0.42 | 0.00 | 100 | 1015.2 |
| 20260507064555 | 44 | 268 | 2.0 | 10.0 | 0.00 | 0.42 | 0.00 | 100 | 1015.0 |
| 20260507063049 | 44 | 235 | 3.0 | 8.0 | 0.00 | 0.42 | 0.00 | 100 | 1015.2 |
| 20260507061549 | 45 | 269 | 5.0 | 10.0 | 0.00 | 0.42 | 0.00 | 100 | 1015.3 |
| 20260507060056 | 46 | 261 | 4.0 | 8.0 | 0.00 | 0.42 | 0.00 | 100 | 1015.5 |
| 20260507054549 | 46 | 262 | 3.0 | 8.0 | 0.00 | 0.42 | 0.00 | 100 | 1015.6 |
| 20260507053058 | 46 | 225 | 5.0 | 12.0 | 0.00 | 0.42 | 0.00 | 100 | 1015.7 |
| 20260507051551 | 47 | 270 | 5.0 | 11.0 | 0.00 | 0.42 | 0.00 | 100 | 1015.8 |
| 20260507050053 | 47 | 254 | 3.0 | 7.0 | 0.00 | 0.42 | 0.00 | 100 | 1015.9 |
| 20260507044559 | 48 | 243 | 4.0 | 10.0 | 0.00 | 0.42 | 0.00 | 100 | 1015.7 |
| 20260507043056 | 48 | 244 | 3.0 | 9.0 | 0.00 | 0.42 | 0.00 | 100 | 1015.7 |
| 20260507041554 | 48 | 247 | 4.0 | 10.0 | 0.00 | 0.42 | 0.00 | 100 | 1015.4 |
| 20260507040050 | 48 | 253 | 3.0 | 8.0 | 0.00 | 0.42 | 0.00 | 100 | 1015.5 |
| 20260507034553 | 48 | 234 | 3.0 | 8.0 | 0.00 | 0.42 | 0.42 | 100 | 1015.3 |
| 20260507033102 | 49 | 212 | 2.0 | 7.0 | 0.00 | 0.42 | 0.42 | 100 | 1015.3 |
| 20260507031600 | 49 | 233 | 6.0 | 14.0 | 0.00 | 0.42 | 0.42 | 100 | 1016.5 |
| 20260507030107 | 49 | 252 | 4.0 | 12.0 | 0.00 | 0.42 | 0.42 | 100 | 1016.5 |
| 20260507024608 | 49 | 249 | 4.0 | 9.0 | 0.00 | 0.42 | 0.42 | 100 | 1016.5 |
| 20260507023053 | 49 | 223 | 3.0 | 7.0 | 0.00 | 0.42 | 0.42 | 100 | 1015.9 |
| 20260507021557 | 49 | 246 | 4.0 | 10.0 | 0.00 | 0.42 | 0.42 | 100 | 1016.3 |
| 20260507020057 | 49 | 247 | 4.0 | 9.0 | 0.00 | 0.42 | 0.42 | 100 | 1016.0 |
| 20260507014555 | 49 | 277 | 4.0 | 7.0 | 0.00 | 0.42 | 0.42 | 100 | 1015.8 |
| 20260507013053 | 50 | 231 | 3.0 | 7.0 | 0.00 | 0.42 | 0.42 | 100 | 1015.4 |
| 20260507011556 | 50 | 244 | 2.0 | 7.0 | 0.00 | 0.42 | 0.42 | 100 | 1016.0 |
| 20260507010050 | 50 | 227 | 4.0 | 7.0 | 0.00 | 0.42 | 0.42 | 100 | 1015.9 |
| 20260507004551 | 50 | 225 | 2.0 | 5.0 | 0.00 | 0.42 | 0.42 | 100 | 1015.0 |
| 20260507003047 | 50 | 234 | 3.0 | 9.0 | 0.00 | 0.42 | 0.42 | 100 | 1015.7 |
| 20260507001545 | 50 | 248 | 3.0 | 7.0 | 0.00 | 0.42 | 0.42 | 100 | 1016.0 |
| 20260507000046 | 50 | 273 | 2.0 | 9.0 | 0.00 | 0.42 | 0.42 | 100 | 1015.7 |
| 20260506234555 | 51 | 248 | 4.0 | 10.0 | 0.00 | 0.42 | 0.42 | 100 | 1015.9 |
| 20260506233052 | 51 | 257 | 3.0 | 9.0 | 0.00 | 0.42 | 0.42 | 100 | 1015.7 |
| 20260506231554 | 52 | 281 | 5.0 | 12.0 | 0.00 | 0.42 | 0.42 | 100 | 1015.8 |
| 20260506230059 | 52 | 234 | 5.0 | 12.0 | 0.00 | 0.42 | 0.42 | 100 | 1015.9 |
| 20260506224551 | 53 | 265 | 5.0 | 12.0 | 0.00 | 0.42 | 0.42 | 100 | 1015.8 |
| 20260506223048 | 54 | 267 | 5.0 | 13.0 | 0.00 | 0.42 | 0.42 | 100 | 1015.4 |
| 20260506221551 | 54 | 266 | 7.0 | 16.0 | 0.01 | 0.42 | 0.42 | 100 | 1015.2 |
| 20260506220053 | 55 | 260 | 6.0 | 16.0 | 0.01 | 0.42 | 0.42 | 100 | 1015.0 |
| 20260506214551 | 55 | 243 | 5.0 | 12.0 | 0.01 | 0.42 | 0.42 | 100 | 1015.2 |
| 20260506213051 | 55 | 225 | 4.0 | 8.0 | 0.01 | 0.41 | 0.41 | 100 | 1015.1 |
| 20260506211550 | 55 | 232 | 4.0 | 10.0 | 0.09 | 0.41 | 0.41 | 100 | 1014.9 |
| 20260506210052 | 55 | 242 | 4.0 | 13.0 | 0.09 | 0.41 | 0.41 | 100 | 1014.6 |